• In Czech Republic
  • List of Countries
  • For 7 days
  • Water Temperature
  • Satellite Maps
  • Weather Map
  • Weather Widgets
  • user-avatar
    Login

    Hourly Weather Halifax

    Today, 17 February, Saturday

    Time Temperature Precipitation Wind Pressure Humidity
    00:00 -3°C° 0 mm 7 mps 750 mmHg 81%
    01:00 -6°C° 0 mm 8 mps 752 mmHg 76%
    02:00 -6°C° 0 mm 9 mps 753 mmHg 74%
    03:00 -8°C° 0 mm 9 mps 755 mmHg 69%
    04:00 -10°C° 0 mm 10 mps 756 mmHg 64%
    05:00 -13°C° 0 mm 10 mps 758 mmHg 59%
    06:00 -12°C° 0 mm 9 mps 760 mmHg 56%
    07:00 -14°C° 0 mm 9 mps 762 mmHg 53%
    08:00 -13°C° 0 mm 8 mps 763 mmHg 52%
    09:00 -13°C° 0 mm 8 mps 764 mmHg 48%
    10:00 -12°C° 0 mm 8 mps 765 mmHg 43%
    11:00 -11°C° 0 mm 8 mps 766 mmHg 39%
    12:00 -11°C° 0 mm 7 mps 766 mmHg 37%
    13:00 -9°C° 0 mm 6 mps 767 mmHg 35%
    14:00 -7°C° 0 mm 5 mps 767 mmHg 33%
    15:00 -8°C° 0 mm 4 mps 767 mmHg 33%
    16:00 -8°C° 0 mm 4 mps 767 mmHg 33%
    17:00 -7°C° 0 mm 3 mps 767 mmHg 34%
    18:00 -6°C° 0 mm 2 mps 768 mmHg 35%
    19:00 -4°C° 0 mm 1 mps 768 mmHg 36%
    20:00 -4°C° 0 mm 1 mps 769 mmHg 37%
    21:00 -4°C° 0 mm 1 mps 768 mmHg 37%
    22:00 -4°C° 0 mm 1 mps 768 mmHg 37%
    23:00 -6°C° 0 mm 2 mps 768 mmHg 37%

    Tomorrow, 18 February, Sunday

    Time Temperature Precipitation Wind Pressure Humidity
    00:00 -6°C° 0 mm 3 mps 767 mmHg 39%
    01:00 -6°C° 0 mm 3 mps 767 mmHg 41%
    02:00 -5°C° 0 mm 4 mps 767 mmHg 44%
    03:00 -5°C° 0 mm 4 mps 766 mmHg 49%
    04:00 -6°C° 0 mm 5 mps 764 mmHg 55%
    05:00 -5°C° 0 mm 5 mps 763 mmHg 60%
    06:00 -5°C° 0.2 mm 5 mps 763 mmHg 68%
    07:00 -5°C° 0.2 mm 5 mps 762 mmHg 76%
    08:00 -5°C° 0.2 mm 6 mps 761 mmHg 83%
    09:00 -4°C° 0.4 mm 6 mps 760 mmHg 81%
    10:00 -4°C° 0.4 mm 6 mps 759 mmHg 78%
    11:00 -3°C° 0.4 mm 6 mps 758 mmHg 76%
    12:00 -3°C° 0.4 mm 6 mps 758 mmHg 76%
    13:00 -3°C° 0.4 mm 6 mps 758 mmHg 76%
    14:00 -3°C° 0.4 mm 6 mps 758 mmHg 77%
    15:00 -2°C° 0 mm 5 mps 759 mmHg 76%
    16:00 -2°C° 0 mm 4 mps 760 mmHg 76%
    17:00 -1°C° 0 mm 3 mps 761 mmHg 75%
    18:00 -2°C° 0 mm 3 mps 762 mmHg 81%
    19:00 -3°C° 0 mm 2 mps 763 mmHg 86%
    20:00 -4°C° 0 mm 2 mps 764 mmHg 91%
    21:00 -5°C° 0 mm 3 mps 765 mmHg 91%
    22:00 -5°C° 0 mm 3 mps 766 mmHg 91%
    23:00 -5°C° 0 mm 4 mps 767 mmHg 92%

    Day after tomorrow, 19 February, Monday

    Time Temperature Precipitation Wind Pressure Humidity
    00:00 -5°C° 0 mm 4 mps 768 mmHg 91%
    01:00 -5°C° 0 mm 4 mps 768 mmHg 90%
    02:00 -5°C° 0 mm 4 mps 769 mmHg 89%
    03:00 -5°C° 0 mm 4 mps 769 mmHg 90%
    04:00 -5°C° 0 mm 3 mps 770 mmHg 90%
    05:00 -6°C° 0 mm 3 mps 770 mmHg 90%
    06:00 -6°C° 0 mm 3 mps 771 mmHg 88%
    07:00 -4°C° 0 mm 2 mps 771 mmHg 87%
    08:00 -4°C° 0 mm 2 mps 772 mmHg 85%
    09:00 -2°C° 0 mm 3 mps 772 mmHg 74%
    10:00 0°C° 0 mm 3 mps 772 mmHg 63%
    11:00 +1°C° 0 mm 4 mps 773 mmHg 52%
    12:00 +3°C° 0 mm 4 mps 772 mmHg 50%
    13:00 +3°C° 0 mm 5 mps 772 mmHg 48%
    14:00 +3°C° 0 mm 5 mps 771 mmHg 47%
    15:00 +3°C° 0 mm 5 mps 771 mmHg 54%
    16:00 +2°C° 0 mm 5 mps 771 mmHg 61%
    17:00 +2°C° 0 mm 6 mps 771 mmHg 69%
    18:00 +1°C° 0 mm 6 mps 771 mmHg 74%
    19:00 -1°C° 0 mm 6 mps 771 mmHg 79%
    20:00 -2°C° 0 mm 6 mps 771 mmHg 85%
    21:00 -2°C° 0 mm 6 mps 770 mmHg 84%
    22:00 -2°C° 0 mm 6 mps 770 mmHg 83%
    23:00 -2°C° 0 mm 6 mps 770 mmHg 82%

    20 February, Tuesday

    Time Temperature Precipitation Wind Pressure Humidity
    00:00 -2°C° 0 mm 6 mps 769 mmHg 83%
    01:00 -1°C° 0 mm 6 mps 769 mmHg 84%
    02:00 +1°C° 0 mm 6 mps 768 mmHg 85%
    03:00 +1°C° 0.3 mm 6 mps 768 mmHg 88%
    04:00 +1°C° 0.3 mm 6 mps 767 mmHg 91%
    05:00 +2°C° 0.3 mm 6 mps 766 mmHg 95%
    06:00 +2°C° 1.1 mm 6 mps 766 mmHg 95%
    07:00 +3°C° 1.1 mm 6 mps 766 mmHg 96%
    08:00 +3°C° 1.1 mm 6 mps 765 mmHg 96%
    09:00 +4°C° 0.3 mm 6 mps 765 mmHg 96%
    10:00 +4°C° 0.3 mm 6 mps 764 mmHg 96%
    11:00 +5°C° 0.3 mm 6 mps 764 mmHg 95%
    12:00 +5°C° 0.4 mm 5 mps 764 mmHg 96%
    13:00 +5°C° 0.4 mm 4 mps 763 mmHg 97%
    14:00 +5°C° 0.4 mm 4 mps 763 mmHg 97%
    15:00 +5°C° 0 mm 4 mps 763 mmHg 97%
    16:00 +5°C° 0 mm 4 mps 763 mmHg 97%
    17:00 +6°C° 0 mm 4 mps 763 mmHg 97%
    18:00 +6°C° 0.1 mm 4 mps 763 mmHg 97%
    19:00 +6°C° 0.1 mm 4 mps 763 mmHg 97%
    20:00 +5°C° 0.1 mm 4 mps 763 mmHg 98%
    21:00 +6°C° 0 mm 4 mps 763 mmHg 98%
    22:00 +6°C° 0 mm 4 mps 763 mmHg 98%
    23:00 +6°C° 0 mm 4 mps 763 mmHg 98%

    21 February, Wednesday

    Time Temperature Precipitation Wind Pressure Humidity
    00:00 +6°C° 0.1 mm 4 mps 763 mmHg 97%
    01:00 +7°C° 0.1 mm 5 mps 763 mmHg 97%
    02:00 +7°C° 0.1 mm 5 mps 762 mmHg 97%
    03:00 +8°C° 0.2 mm 5 mps 762 mmHg 97%
    04:00 +8°C° 0.2 mm 6 mps 762 mmHg 96%
    05:00 +9°C° 0.2 mm 6 mps 761 mmHg 96%
    06:00 +10°C° 0 mm 6 mps 761 mmHg 95%
    07:00 +10°C° 0 mm 6 mps 761 mmHg 95%
    08:00 +11°C° 0 mm 7 mps 761 mmHg 95%
    09:00 +11°C° 0 mm 7 mps 761 mmHg 93%
    10:00 +11°C° 0 mm 7 mps 760 mmHg 92%
    11:00 +12°C° 0 mm 7 mps 760 mmHg 91%
    12:00 +12°C° 0 mm 7 mps 760 mmHg 89%
    13:00 +14°C° 0 mm 7 mps 759 mmHg 88%
    14:00 +15°C° 0 mm 7 mps 759 mmHg 86%
    15:00 +14°C° 0 mm 7 mps 759 mmHg 87%
    16:00 +14°C° 0 mm 7 mps 758 mmHg 89%
    17:00 +14°C° 0 mm 7 mps 758 mmHg 90%
    18:00 +14°C° 0 mm 7 mps 758 mmHg 91%
    19:00 +12°C° 0 mm 7 mps 758 mmHg 91%
    20:00 +12°C° 0 mm 7 mps 758 mmHg 92%
    21:00 +12°C° 0 mm 7 mps 758 mmHg 92%
    22:00 +12°C° 0 mm 7 mps 758 mmHg 92%
    23:00 +12°C° 0 mm 7 mps 757 mmHg 92%

    22 February, Thursday

    Time Temperature Precipitation Wind Pressure Humidity
    00:00 +12°C° 0 mm 7 mps 758 mmHg 90%
    01:00 +12°C° 0 mm 7 mps 758 mmHg 89%
    02:00 +12°C° 0 mm 7 mps 758 mmHg 88%
    03:00 +10°C° 0 mm 7 mps 759 mmHg 85%
    04:00 +8°C° 0 mm 7 mps 760 mmHg 82%
    05:00 +5°C° 0 mm 7 mps 761 mmHg 79%
    06:00 +3°C° 0 mm 7 mps 763 mmHg 73%
    07:00 0°C° 0 mm 7 mps 764 mmHg 68%
    08:00 -2°C° 0 mm 7 mps 765 mmHg 62%
    09:00 -2°C° 0 mm 7 mps 766 mmHg 60%
    10:00 -2°C° 0 mm 7 mps 767 mmHg 58%
    11:00 -2°C° 0 mm 7 mps 767 mmHg 55%
    12:00 -2°C° 0 mm 7 mps 768 mmHg 53%
    13:00 -1°C° 0 mm 7 mps 768 mmHg 51%
    14:00 -1°C° 0 mm 6 mps 768 mmHg 49%
    15:00 -2°C° 0 mm 6 mps 769 mmHg 49%
    16:00 -3°C° 0 mm 6 mps 769 mmHg 50%
    17:00 -3°C° 0 mm 6 mps 770 mmHg 51%
    18:00 -4°C° 0 mm 5 mps 771 mmHg 52%
    19:00 -4°C° 0 mm 5 mps 771 mmHg 52%
    20:00 -5°C° 0 mm 5 mps 772 mmHg 53%
    21:00 -5°C° 0 mm 5 mps 772 mmHg 54%
    22:00 -6°C° 0 mm 5 mps 773 mmHg 54%
    23:00 -6°C° 0 mm 5 mps 773 mmHg 55%
    Show more